Regional Weather Roundup
Issued by NWS

Home | Current Version | Previous Version | Text Only | Print | Product List | Glossary On
Versions: 1 2 3 4 5 6 7 8 9 10 11 12 13 14 15 16 17 18 19 20 21 22 23 24 25 26 27 28 29 30 31 32 33 34 35 36 37 38 39 40 41 42 43 44 45 46 47 48 49 50
000
ASUS43 KOAX 311310
RWRNE

WEATHER ROUNDUP FOR NEBRASKA
NATIONAL WEATHER SERVICE OMAHA NE
800 AM CDT FRI JUL 31 2015

NOTES: SATELLITE DATA IS BEING USED TO AUGMENT CLOUD COVER ABOVE
       12000 FEET.
       "FAIR" INDICATES FEW OR NO CLOUDS BELOW 12,000 FEET WITH NO
       SIGNIFICANT WEATHER AND/OR OBSTRUCTIONS TO VISIBILITY.

  * THESE STATIONS DO NOT REPORT WEATHER SUCH AS RAIN...SNOW OR FOG.

NEZ001>004-019>022-054>056-311400-
NEBRASKA PANHANDLE

CITY           SKY/WX    TMP DP  RH WIND       PRES   REMARKS
SCOTTSBLUFF    SUNNY     62  59  90 E3        30.27R
ALLIANCE       SUNNY     56  53  90 W3        30.26S
CHADRON        SUNNY     58  52  80 CALM      30.24R
KIMBALL        SUNNY     58  56  92 CALM      30.31R
SIDNEY         SUNNY     61  58  90 SW3       30.31R
$$

NEZ057>060-069>072-079>082-311400-
SOUTHWEST NEBRASKA

CITY           SKY/WX    TMP DP  RH WIND       PRES   REMARKS
NORTH PLATTE   SUNNY     66  62  87 CALM      30.23R
IMPERIAL       SUNNY     63  57  81 CALM      30.26R
LEXINGTON      MOSUNNY   71  67  89 CALM      30.20F
MCCOOK         SUNNY     67  64  90 CALM      30.23R
OGALLALA       SUNNY     60  60  99 W3        30.26S
$$

NEZ005>010-023>029-035>040-094-311400-
NORTH CENTRAL NEBRASKA

CITY           SKY/WX    TMP DP  RH WIND       PRES   REMARKS
VALENTINE      SUNNY     63  54  72 CALM      30.20R
AINSWORTH      SUNNY     68  59  72 SW3       30.20S
BROKEN BOW     SUNNY     69  64  84 CALM      30.21R
O`NEILL        SUNNY     69  65  90 CALM      30.18R
ORD            SUNNY     67  64  90 CALM      30.18R
THEDFORD       SUNNY     64  61  90 CALM      30.24R
$$

NEZ041-046>049-061>064-073>077-083>087-311400-
SOUTH CENTRAL NEBRASKA

CITY           SKY/WX    TMP DP  RH WIND       PRES   REMARKS
GRAND ISLAND   SUNNY     73  67  81 W6        30.20R
AURORA         SUNNY     70  69  97 CALM      30.19R
HASTINGS       SUNNY     70  67  90 SW5       30.20S
HEBRON         SUNNY     72  66  82 W5        30.18S
HOLDREGE       SUNNY     70  66  88 CALM      30.21S
KEARNEY *      MOSUNNY   72  64  78 SW7       30.20R
YORK           SUNNY     70  68  94 CALM      30.19R
$$

NEZ011>018-030>034-042>045-311400-
NORTHEAST NEBRASKA

CITY           SKY/WX    TMP DP  RH WIND       PRES   REMARKS
NORFOLK        SUNNY     70  65  84 S6        30.15R
ALBION         SUNNY     68  64  87 CALM      30.18R
BLAIR          MOSUNNY   71  64  78 SW7       30.15R
COLUMBUS *     SUNNY     72  64  78 S6        30.17S
FREMONT        SUNNY     73  63  70 SW5       30.16S
TEKAMAH        SUNNY     70  64  81 SE3       30.14R
WAYNE          SUNNY     67  64  89 NE5       30.16R
$$

NEZ050>053-065>068-078-088>093-311400-
SOUTHEAST NEBRASKA

CITY           SKY/WX    TMP DP  RH WIND       PRES   REMARKS
LINCOLN        SUNNY     72  66  81 SE7       30.19R
OMAHA EPPLEY   MOSUNNY   75  64  68 CALM      30.14R
BEATRICE       SUNNY     69  64  86 CALM      30.19S
FALLS CITY     SUNNY     70  65  84 S5        30.17F
NEBRASKA CITY  MOSUNNY   69  64  85 NW3       30.19R
PLATTSMOUTH    MOSUNNY   72  63  72 SW8       30.16S
$$

NEZ044-045-051>053-067-311400-
OMAHA AREA

CITY           SKY/WX    TMP DP  RH WIND       PRES   REMARKS
OMAHA EPPLEY   MOSUNNY   75  64  68 CALM      30.14R
BLAIR          MOSUNNY   71  64  78 SW7       30.15R
FREMONT        SUNNY     73  63  70 SW5       30.16S
MILLARD        SUNNY     73  66  77 NW3       30.15S
OFFUTT AFB     SUNNY     73  65  77 W5        30.14R
PLATTSMOUTH    MOSUNNY   72  63  72 SW8       30.16S
WAHOO          FAIR      72  66  82 S3        30.16S
$$



USA.gov is the U.S. government's official web portal to all federal, state and local government web resources and services.